This is the latest recevied weather packets stored in our database for station/object NE8U. If no packets are shown the sender has not sent any weather packets the latest 10 day(s).
| Time | Temp. | Humidity | Pressure | Rain* | Wind** | Luminosity | Snow |
|---|---|---|---|---|---|---|---|
| 1778063847 | 11.67° C | 67% | 1016 hPa | 0 mm | - | 0 W/m² | - |
| 1778063544 | 11.67° C | 66% | 1016 hPa | 0 mm | - | 0 W/m² | - |
| 1778063242 | 11.67° C | 67% | 1016 hPa | 0 mm | - | 0 W/m² | - |
| 1778062940 | 11.11° C | 70% | 1016 hPa | 0 mm | - | 0 W/m² | - |
| 1778062636 | 11.11° C | 72% | 1015.9 hPa | 0 mm | - | 0 W/m² | - |
| 1778062333 | 11.11° C | 73% | 1015.9 hPa | 0 mm | - | 0 W/m² | - |
| 1778062031 | 11.11° C | 73% | 1015.9 hPa | 0 mm | - | 0 W/m² | - |
| 1778061729 | 11.67° C | 73% | 1015.7 hPa | 0 mm | - | 0 W/m² | - |
| 1778061427 | 11.67° C | 70% | 1015.8 hPa | 0 mm | - | 0 W/m² | - |
| 1778061124 | 12.22° C | 65% | 1015.8 hPa | 0 mm | - | 0 W/m² | - |
| 1778060821 | 12.22° C | 65% | 1015.9 hPa | 0 mm | - | 0 W/m² | - |
| 1778060519 | 12.22° C | 65% | 1015.7 hPa | 0 mm | - | 0 W/m² | - |
| 1778060218 | 12.22° C | 66% | 1015.9 hPa | 0 mm | - | 0 W/m² | - |
| 1778059914 | 12.78° C | 65% | 1015.8 hPa | 0 mm | - | 0 W/m² | - |
| 1778059611 | 12.78° C | 65% | 1015.9 hPa | 0 mm | - | 0 W/m² | - |
| 1778059309 | 12.78° C | 65% | 1015.7 hPa | 0 mm | - | 0 W/m² | - |
| 1778059007 | 12.78° C | 65% | 1015.8 hPa | 0 mm | - | 0 W/m² | - |
| 1778058704 | 12.78° C | 62% | 1015.8 hPa | 0 mm | - | 0 W/m² | - |
| 1778058402 | 13.33° C | 61% | 1015.7 hPa | 0 mm | - | 0 W/m² | - |
| 1778058098 | 13.33° C | 62% | 1015.8 hPa | 0 mm | - | 0 W/m² | - |
| 1778057795 | 12.78° C | 62% | 1015.7 hPa | 0 mm | - | 0 W/m² | - |
| 1778057491 | 13.33° C | 62% | 1015.8 hPa | 0 mm | - | 0 W/m² | - |
| 1778057188 | 13.33° C | 61% | 1015.7 hPa | 0 mm | - | 0 W/m² | - |
| 1778056885 | 13.33° C | 60% | 1015.8 hPa | 0 mm | - | 0 W/m² | - |
| 1778056582 | 13.89° C | 59% | 1016 hPa | 0 mm | - | 0 W/m² | - |
* Rain latest hour (hover to see other rain measurements)
** Current wind speed in m/s (hover to see current wind gust speed)